N2933A 67FL-KLAL

Flight info

Callsign N2933A
Flight time 1h 15m
Altitude 3500
Route 67FL VPMNO VPFSY VPTTCK KLAL
Aircraft P28A/L-S/C

Departure

Time 2026-04-22 00:12
Airport Bald Eagle Airstrip (67FL)

Arrival

Time 2026-04-22 01:28
Airport Lakeland Linder International Airport (KLAL)
Time Latitude Longitude Altitude Speed Heading
2026-04-22 00:09 27.45072 -82.10473 86 ft 0 kts
2026-04-22 00:10 27.45097 -82.10473 89 ft 19 kts
2026-04-22 00:10 27.45381 -82.10436 88 ft 58 kts
2026-04-22 00:11 27.45857 -82.10442 145 ft 84 kts
2026-04-22 00:11 27.46438 -82.10634 361 ft 91 kts 337°
2026-04-22 00:11 27.46937 -82.11111 481 ft 90 kts 329°
2026-04-22 00:11 27.47471 -82.11252 464 ft 74 kts 21°
2026-04-22 00:12 27.48011 -82.11089 452 ft 89 kts 22°
2026-04-22 00:12 27.48588 -82.10875 562 ft 87 kts 10°
2026-04-22 00:12 27.49188 -82.10815 677 ft 85 kts
2026-04-22 00:12 27.49702 -82.10834 720 ft 89 kts
2026-04-22 00:16 27.49895 -82.10799 763 ft 87 kts
2026-04-22 00:16 27.50137 -82.10739 825 ft 84 kts 14°
2026-04-22 00:16 27.50238 -82.10690 824 ft 87 kts 25°
2026-04-22 00:16 27.50497 -82.10476 835 ft 91 kts 40°
2026-04-22 00:17 27.50690 -82.09854 908 ft 91 kts 92°
2026-04-22 00:17 27.50637 -82.09440 989 ft 88 kts 99°
2026-04-22 00:17 27.50606 -82.09206 1029 ft 87 kts 98°
2026-04-22 00:18 27.50612 -82.08513 1112 ft 89 kts 81°
2026-04-22 00:18 27.50897 -82.07902 1198 ft 91 kts 43°
2026-04-22 00:18 27.51461 -82.07674 1385 ft 85 kts
2026-04-22 00:18 27.52044 -82.07778 1557 ft 88 kts 333°
2026-04-22 00:19 27.52508 -82.08227 1724 ft 88 kts 314°
2026-04-22 00:19 27.52934 -82.08690 1884 ft 89 kts 323°
2026-04-22 00:19 27.53516 -82.09049 1974 ft 99 kts 330°
2026-04-22 00:19 27.54178 -82.09351 1958 ft 110 kts 359°
2026-04-22 00:20 27.54818 -82.09252 1966 ft 113 kts
2026-04-22 00:20 27.55594 -82.09195 2004 ft 114 kts
2026-04-22 00:20 27.56384 -82.09110 2061 ft 114 kts
2026-04-22 00:20 27.57175 -82.09022 2095 ft 114 kts
2026-04-22 00:21 27.57968 -82.08933 2110 ft 115 kts
2026-04-22 00:21 27.58761 -82.08845 2126 ft 115 kts
2026-04-22 00:21 27.59536 -82.08756 2157 ft 106 kts
2026-04-22 00:22 27.61655 -82.08517 2066 ft 98 kts
2026-04-22 00:22 27.62329 -82.08443 2062 ft 97 kts
2026-04-22 00:22 27.63000 -82.08367 2029 ft 97 kts
2026-04-22 00:23 27.63670 -82.08289 2011 ft 97 kts
2026-04-22 00:23 27.64340 -82.08214 1984 ft 96 kts
2026-04-22 00:23 27.64948 -82.08145 2116 ft 81 kts
2026-04-22 00:23 27.65493 -82.08083 2189 ft 77 kts
2026-04-22 00:24 27.66019 -82.08017 2222 ft 76 kts
2026-04-22 00:24 27.66540 -82.07949 2299 ft 75 kts
2026-04-22 00:24 27.67055 -82.07882 2320 ft 75 kts
2026-04-22 00:24 27.67609 -82.07812 2437 ft 86 kts
2026-04-22 00:25 27.68220 -82.07734 2642 ft 90 kts
2026-04-22 00:25 27.68850 -82.07679 2852 ft 92 kts 356°
2026-04-22 00:25 27.69486 -82.07762 3073 ft 92 kts 354°
2026-04-22 00:25 27.70152 -82.07839 3177 ft 103 kts 351°
2026-04-22 00:26 27.70919 -82.07968 3110 ft 119 kts 352°
2026-04-22 00:26 27.71746 -82.08075 3162 ft 120 kts 354°
2026-04-22 00:26 27.72577 -82.08166 3226 ft 117 kts 353°
2026-04-22 00:26 27.73362 -82.08249 3227 ft 111 kts 354°
2026-04-22 00:27 27.74123 -82.08332 3238 ft 109 kts 353°
2026-04-22 00:27 27.74875 -82.08409 3256 ft 108 kts 354°
2026-04-22 00:27 27.75622 -82.08488 3273 ft 108 kts 354°
2026-04-22 00:27 27.76359 -82.08565 3261 ft 108 kts 354°
2026-04-22 00:28 27.77102 -82.08643 3251 ft 107 kts 354°
2026-04-22 00:28 27.77853 -82.08699 3258 ft 111 kts 356°
2026-04-22 00:28 27.78642 -82.08753 3314 ft 115 kts 355°
2026-04-22 00:28 27.79450 -82.08795 3375 ft 117 kts 357°
2026-04-22 00:29 27.80265 -82.08852 3409 ft 118 kts 355°
2026-04-22 00:29 27.81084 -82.08910 3459 ft 118 kts 356°
2026-04-22 00:29 27.81905 -82.08967 3504 ft 118 kts 356°
2026-04-22 00:29 27.82726 -82.09021 3550 ft 118 kts 355°
2026-04-22 00:30 27.83536 -82.09075 3608 ft 118 kts 356°
2026-04-22 00:30 27.84358 -82.09131 3643 ft 118 kts 355°
2026-04-22 00:30 27.85180 -82.09187 3680 ft 118 kts 356°
2026-04-22 00:30 27.86001 -82.09242 3707 ft 118 kts 356°
2026-04-22 00:31 27.86823 -82.09298 3743 ft 118 kts 355°
2026-04-22 00:31 27.87645 -82.09352 3768 ft 118 kts 356°
2026-04-22 00:31 27.88468 -82.09398 3792 ft 118 kts 358°
2026-04-22 00:31 27.89291 -82.09401 3814 ft 118 kts 359°
2026-04-22 00:32 27.90114 -82.09408 3836 ft 118 kts 359°
2026-04-22 00:32 27.90938 -82.09416 3870 ft 118 kts 358°
2026-04-22 00:32 27.91750 -82.09421 3911 ft 118 kts 359°
2026-04-22 00:32 27.92574 -82.09425 3932 ft 118 kts 358°
2026-04-22 00:33 27.93396 -82.09433 3970 ft 118 kts 359°
2026-04-22 00:33 27.94219 -82.09439 4000 ft 118 kts 358°
2026-04-22 00:33 27.95042 -82.09448 4048 ft 118 kts 359°
2026-04-22 00:33 27.95864 -82.09455 4081 ft 118 kts 359°
2026-04-22 00:34 27.96686 -82.09461 4105 ft 118 kts 358°
2026-04-22 00:34 27.97508 -82.09468 4141 ft 118 kts 359°
2026-04-22 00:34 27.98331 -82.09472 4188 ft 118 kts 359°
2026-04-22 00:34 27.99154 -82.09479 4230 ft 118 kts 359°
2026-04-22 00:35 27.99975 -82.09451 4246 ft 118 kts
2026-04-22 00:35 28.00795 -82.09372 4265 ft 118 kts
2026-04-22 00:35 28.01604 -82.09296 4299 ft 118 kts
2026-04-22 00:35 28.02317 -82.08856 4309 ft 116 kts 34°
2026-04-22 00:36 28.02987 -82.08360 4243 ft 115 kts 31°
2026-04-22 00:36 28.03670 -82.07883 4146 ft 116 kts 32°
2026-04-22 00:36 28.04363 -82.07439 4088 ft 114 kts 24°
2026-04-22 00:36 28.05100 -82.07087 4004 ft 115 kts 23°
2026-04-22 00:37 28.05764 -82.06581 3917 ft 116 kts 39°
2026-04-22 00:37 28.06388 -82.05992 3782 ft 117 kts 38°
2026-04-22 00:37 28.07042 -82.05465 3679 ft 115 kts 36°
2026-04-22 00:37 28.07671 -82.04881 3498 ft 119 kts 38°
2026-04-22 00:38 28.08337 -82.04320 3372 ft 119 kts 38°
2026-04-22 00:38 28.08930 -82.03719 3221 ft 115 kts 45°
2026-04-22 00:38 28.09451 -82.03061 2959 ft 109 kts 46°
2026-04-22 00:38 28.09973 -82.02474 2750 ft 103 kts 44°
2026-04-22 00:39 28.10484 -82.01898 2521 ft 104 kts 41°
2026-04-22 00:39 28.11048 -82.01399 2334 ft 102 kts 36°
2026-04-22 00:39 28.11655 -82.00943 2204 ft 106 kts 28°
2026-04-22 00:39 28.12346 -82.00678 2128 ft 105 kts 14°
2026-04-22 00:40 28.13055 -82.00462 2093 ft 106 kts 16°
2026-04-22 00:40 28.13753 -82.00216 2093 ft 104 kts 17°
2026-04-22 00:40 28.14423 -81.99864 2077 ft 112 kts 36°
2026-04-22 00:40 28.15032 -81.99360 2138 ft 108 kts 34°
2026-04-22 00:41 28.15653 -81.98845 2100 ft 109 kts 37°
2026-04-22 00:41 28.16266 -81.98352 2120 ft 107 kts 31°
2026-04-22 00:41 28.16886 -81.97891 2145 ft 106 kts 33°
2026-04-22 00:41 28.17489 -81.97428 2177 ft 106 kts 33°
2026-04-22 00:42 28.18110 -81.96977 2191 ft 106 kts 32°
2026-04-22 00:42 28.18725 -81.96517 2216 ft 106 kts 33°
2026-04-22 00:42 28.19341 -81.96058 2259 ft 106 kts 32°
2026-04-22 00:42 28.19947 -81.95604 2275 ft 106 kts 33°
2026-04-22 00:43 28.20487 -81.95202 2295 ft 106 kts 32°
2026-04-22 00:43 28.21135 -81.94784 2276 ft 107 kts 25°
2026-04-22 00:43 28.21831 -81.94501 2281 ft 107 kts 19°
2026-04-22 00:43 28.22543 -81.94213 2273 ft 106 kts 18°
2026-04-22 00:44 28.23233 -81.93953 2304 ft 105 kts 19°
2026-04-22 00:44 28.23915 -81.93638 2322 ft 106 kts 20°
2026-04-22 00:44 28.24624 -81.93334 2190 ft 117 kts 19°
2026-04-22 00:44 28.25262 -81.92846 2236 ft 109 kts 60°
2026-04-22 00:45 28.25271 -81.92032 2238 ft 107 kts 121°
2026-04-22 00:45 28.24906 -81.91301 2264 ft 107 kts 117°
2026-04-22 00:45 28.24607 -81.90515 2209 ft 111 kts 112°
2026-04-22 00:45 28.24356 -81.89676 2167 ft 114 kts 109°
2026-04-22 00:46 28.24095 -81.88840 2185 ft 110 kts 114°
2026-04-22 00:46 28.23731 -81.88080 2196 ft 112 kts 121°
2026-04-22 00:46 28.23333 -81.87302 2154 ft 113 kts 121°
2026-04-22 00:46 28.22907 -81.86568 2116 ft 109 kts 128°
2026-04-22 00:47 28.22413 -81.85911 1962 ft 110 kts 134°
2026-04-22 00:47 28.21886 -81.85288 1819 ft 110 kts 135°
2026-04-22 00:47 28.21345 -81.84692 1708 ft 110 kts 137°
2026-04-22 00:47 28.20773 -81.84117 1617 ft 110 kts 141°
2026-04-22 00:48 28.20195 -81.83559 1522 ft 108 kts 141°
2026-04-22 00:48 28.19628 -81.83016 1484 ft 105 kts 140°
2026-04-22 00:48 28.19082 -81.82461 1436 ft 105 kts 140°
2026-04-22 00:48 28.18508 -81.81956 1479 ft 102 kts 147°
2026-04-22 00:49 28.17928 -81.81491 1495 ft 104 kts 145°
2026-04-22 00:49 28.17322 -81.81057 1526 ft 101 kts 160°
2026-04-22 00:49 28.16658 -81.80880 1581 ft 100 kts 173°
2026-04-22 00:49 28.15967 -81.80864 1587 ft 101 kts 188°
2026-04-22 00:50 28.15302 -81.81077 1722 ft 96 kts 203°
2026-04-22 00:50 28.14694 -81.81398 1811 ft 98 kts 207°
2026-04-22 00:50 28.14085 -81.81803 1797 ft 103 kts 215°
2026-04-22 00:50 28.13462 -81.82218 1740 ft 103 kts 210°
2026-04-22 00:51 28.12830 -81.82597 1607 ft 104 kts 210°
2026-04-22 00:51 28.12236 -81.83043 1506 ft 100 kts 223°
2026-04-22 00:51 28.11847 -81.83671 1500 ft 93 kts 242°
2026-04-22 00:51 28.11513 -81.84287 1545 ft 99 kts 241°
2026-04-22 00:52 28.11149 -81.84999 1558 ft 111 kts 239°
2026-04-22 00:52 28.10791 -81.85735 1436 ft 105 kts 245°
2026-04-22 00:52 28.10560 -81.86485 1370 ft 97 kts 261°
2026-04-22 00:52 28.10502 -81.87246 1288 ft 98 kts 266°
2026-04-22 00:53 28.10386 -81.87990 1263 ft 94 kts 255°
2026-04-22 00:53 28.10191 -81.88683 1268 ft 95 kts 251°
2026-04-22 00:53 28.09942 -81.89379 1306 ft 99 kts 246°
2026-04-22 00:53 28.09737 -81.90116 1284 ft 99 kts 256°
2026-04-22 00:54 28.09562 -81.90877 1300 ft 100 kts 257°
2026-04-22 00:54 28.09386 -81.91655 1262 ft 101 kts 255°
2026-04-22 00:54 28.09049 -81.92345 1240 ft 101 kts 236°
2026-04-22 00:54 28.08869 -81.93097 1262 ft 97 kts 256°
2026-04-22 00:55 28.08690 -81.93824 1254 ft 96 kts 255°
2026-04-22 00:55 28.08505 -81.94555 1228 ft 98 kts 256°
2026-04-22 00:55 28.08066 -81.95993 1239 ft 96 kts 245°
2026-04-22 00:56 28.07783 -81.96682 1241 ft 97 kts 247°
2026-04-22 00:56 28.07467 -81.97350 1264 ft 96 kts 239°
2026-04-22 00:56 28.07079 -81.97968 1272 ft 96 kts 236°
2026-04-22 00:56 28.06702 -81.98587 1300 ft 96 kts 236°
2026-04-22 00:57 28.06319 -81.99209 1310 ft 98 kts 236°
2026-04-22 00:57 28.05924 -81.99879 1259 ft 103 kts 238°
2026-04-22 00:57 28.05574 -82.00570 1254 ft 100 kts 241°
2026-04-22 00:57 28.05251 -82.01246 1293 ft 96 kts 243°
2026-04-22 00:58 28.04967 -82.01907 1342 ft 94 kts 246°
2026-04-22 00:58 28.04533 -82.02413 1299 ft 100 kts 186°
2026-04-22 00:58 28.03839 -82.02188 1204 ft 101 kts 169°
2026-04-22 00:58 28.03180 -82.01930 1037 ft 104 kts 137°
2026-04-22 00:59 28.03087 -82.01151 1095 ft 100 kts 84°
2026-04-22 00:59 28.03148 -82.00350 1127 ft 106 kts 83°
2026-04-22 00:59 28.03277 -81.99541 1199 ft 105 kts 76°
2026-04-22 00:59 28.03478 -81.98763 1301 ft 100 kts 72°
2026-04-22 01:00 28.03685 -81.98040 1408 ft 101 kts 72°
2026-04-22 01:00 28.03948 -81.97283 1466 ft 103 kts 65°
2026-04-22 01:00 28.04314 -81.96597 1539 ft 103 kts 53°
2026-04-22 01:00 28.04716 -81.95936 1626 ft 102 kts 59°
2026-04-22 01:01 28.05109 -81.95257 1691 ft 104 kts 51°
2026-04-22 01:01 28.05406 -81.94804 1733 ft 110 kts 54°
2026-04-22 01:01 28.05821 -81.94063 1853 ft 114 kts 60°
2026-04-22 01:01 28.06211 -81.93257 1925 ft 116 kts 62°
2026-04-22 01:02 28.06528 -81.92415 2011 ft 118 kts 70°
2026-04-22 01:02 28.06817 -81.91528 2044 ft 121 kts 69°
2026-04-22 01:02 28.07075 -81.90621 2112 ft 121 kts 73°
2026-04-22 01:02 28.07287 -81.89697 2167 ft 122 kts 78°
2026-04-22 01:03 28.07476 -81.88744 2166 ft 126 kts 72°
2026-04-22 01:03 28.08083 -81.88121 2218 ft 122 kts 13°
2026-04-22 01:03 28.08908 -81.88396 2087 ft 131 kts 319°
2026-04-22 01:03 28.09412 -81.89180 1885 ft 119 kts 301°
2026-04-22 01:04 28.09765 -81.89997 1440 ft 114 kts 289°
2026-04-22 01:04 28.09919 -81.90830 1232 ft 104 kts 278°
2026-04-22 01:04 28.09959 -81.91616 1168 ft 98 kts 269°
2026-04-22 01:04 28.09888 -81.92338 1219 ft 90 kts 258°
2026-04-22 01:05 28.09752 -81.93064 1247 ft 97 kts 257°
2026-04-22 01:05 28.09540 -81.93797 1282 ft 99 kts 249°
2026-04-22 01:05 28.09225 -81.94491 1291 ft 102 kts 239°
2026-04-22 01:05 28.08830 -81.95149 1214 ft 100 kts 237°
2026-04-22 01:06 28.08463 -81.95808 1217 ft 97 kts 239°
2026-04-22 01:06 28.08102 -81.96465 1204 ft 100 kts 238°
2026-04-22 01:06 28.07702 -81.97111 1196 ft 100 kts 234°
2026-04-22 01:06 28.07282 -81.97724 1207 ft 99 kts 232°
2026-04-22 01:07 28.06869 -81.98319 1281 ft 95 kts 233°
2026-04-22 01:07 28.06467 -81.98901 1315 ft 97 kts 232°
2026-04-22 01:07 28.06037 -81.99504 1302 ft 100 kts 233°
2026-04-22 01:07 28.05614 -82.00138 1301 ft 102 kts 232°
2026-04-22 01:08 28.05264 -82.00822 1341 ft 100 kts 251°
2026-04-22 01:08 28.05258 -82.01565 1470 ft 100 kts 286°
2026-04-22 01:08 28.05561 -82.02269 1638 ft 102 kts 313°
2026-04-22 01:08 28.06175 -82.02700 1810 ft 102 kts 328°
2026-04-22 01:09 28.06821 -82.03116 1896 ft 109 kts 335°
2026-04-22 01:09 28.07562 -82.03201 2065 ft 108 kts
2026-04-22 01:09 28.08272 -82.02903 2168 ft 112 kts 30°
2026-04-22 01:09 28.08881 -82.02367 2276 ft 112 kts 41°
2026-04-22 01:10 28.09477 -82.01740 2297 ft 120 kts 43°
2026-04-22 01:10 28.10013 -82.01048 2438 ft 117 kts 50°
2026-04-22 01:10 28.10493 -82.00297 2489 ft 122 kts 61°
2026-04-22 01:10 28.10900 -81.99431 2446 ft 126 kts 62°
2026-04-22 01:11 28.11278 -81.98543 2485 ft 124 kts 65°
2026-04-22 01:11 28.11651 -81.97662 2519 ft 124 kts 65°
2026-04-22 01:11 28.12010 -81.96778 2556 ft 124 kts 65°
2026-04-22 01:11 28.12376 -81.95897 2584 ft 123 kts 64°
2026-04-22 01:12 28.12738 -81.95015 2618 ft 124 kts 65°
2026-04-22 01:12 28.13111 -81.94139 2689 ft 123 kts 63°
2026-04-22 01:12 28.13522 -81.93275 2584 ft 134 kts 61°
2026-04-22 01:12 28.13963 -81.92346 2514 ft 132 kts 61°
2026-04-22 01:13 28.14379 -81.91520 2228 ft 114 kts 60°
2026-04-22 01:13 28.14766 -81.90761 2073 ft 109 kts 60°
2026-04-22 01:13 28.15132 -81.90025 1942 ft 111 kts 62°
2026-04-22 01:13 28.15534 -81.89272 1716 ft 112 kts 57°
2026-04-22 01:14 28.15923 -81.88521 1590 ft 108 kts 62°
2026-04-22 01:14 28.16266 -81.87755 1429 ft 110 kts 64°
2026-04-22 01:14 28.16627 -81.87000 1293 ft 108 kts 61°
2026-04-22 01:14 28.16961 -81.86291 1321 ft 101 kts 62°
2026-04-22 01:15 28.17285 -81.85564 1307 ft 105 kts 63°
2026-04-22 01:15 28.17570 -81.84828 1276 ft 105 kts 68°
2026-04-22 01:15 28.17807 -81.84049 1249 ft 101 kts 79°
2026-04-22 01:15 28.17779 -81.83281 1288 ft 98 kts 108°
2026-04-22 01:16 28.17461 -81.82571 1244 ft 104 kts 124°
2026-04-22 01:16 28.17030 -81.81917 1254 ft 103 kts 135°
2026-04-22 01:16 28.16467 -81.81448 1285 ft 100 kts 158°
2026-04-22 01:16 28.15807 -81.81264 1334 ft 97 kts 175°
2026-04-22 01:17 28.15113 -81.81231 1324 ft 100 kts 187°
2026-04-22 01:17 28.14467 -81.81408 1326 ft 97 kts 206°
2026-04-22 01:17 28.13905 -81.81849 1237 ft 98 kts 224°
2026-04-22 01:17 28.13453 -81.82408 1220 ft 94 kts 233°
2026-04-22 01:18 28.13064 -81.82988 1253 ft 93 kts 233°
2026-04-22 01:18 28.12668 -81.83592 1277 ft 98 kts 235°
2026-04-22 01:18 28.12247 -81.84213 1302 ft 100 kts 233°
2026-04-22 01:18 28.11826 -81.84856 1279 ft 102 kts 234°
2026-04-22 01:19 28.11435 -81.85512 1212 ft 100 kts 238°
2026-04-22 01:19 28.11056 -81.86170 1177 ft 98 kts 237°
2026-04-22 01:19 28.10693 -81.86825 1183 ft 99 kts 239°
2026-04-22 01:19 28.10325 -81.87472 1201 ft 97 kts 239°
2026-04-22 01:20 28.09975 -81.88125 1212 ft 97 kts 238°
2026-04-22 01:20 28.09638 -81.88778 1227 ft 97 kts 240°
2026-04-22 01:20 28.09336 -81.89453 1252 ft 95 kts 247°
2026-04-22 01:20 28.09093 -81.90157 1240 ft 98 kts 250°
2026-04-22 01:21 28.08856 -81.90890 1235 ft 100 kts 251°
2026-04-22 01:21 28.08631 -81.91647 1196 ft 102 kts 252°
2026-04-22 01:21 28.08416 -81.92408 1198 ft 101 kts 252°
2026-04-22 01:21 28.08203 -81.93198 1132 ft 105 kts 253°
2026-04-22 01:22 28.08031 -81.93996 1102 ft 103 kts 258°
2026-04-22 01:22 28.07875 -81.94775 1108 ft 99 kts 258°
2026-04-22 01:22 28.07734 -81.95524 1192 ft 97 kts 260°
2026-04-22 01:22 28.07601 -81.96281 1240 ft 99 kts 256°
2026-04-22 01:23 28.07346 -81.97012 1235 ft 101 kts 244°
2026-04-22 01:23 28.07008 -81.97709 1222 ft 100 kts 242°
2026-04-22 01:23 28.06659 -81.98396 1214 ft 101 kts 240°
2026-04-22 01:23 28.06295 -81.99080 1194 ft 102 kts 239°
2026-04-22 01:24 28.05923 -81.99778 1084 ft 108 kts 246°
2026-04-22 01:24 28.05589 -82.00502 1142 ft 100 kts 239°
2026-04-22 01:24 28.05122 -82.01091 1137 ft 103 kts 211°
2026-04-22 01:24 28.04431 -82.01244 1107 ft 103 kts 186°
2026-04-22 01:25 28.03727 -82.01314 1123 ft 99 kts 187°
2026-04-22 01:25 28.03053 -82.01353 1069 ft 96 kts 184°
2026-04-22 01:25 28.02402 -82.01389 1017 ft 92 kts 184°
2026-04-22 01:25 28.01781 -82.01443 929 ft 89 kts 187°
2026-04-22 01:26 28.01180 -82.01546 817 ft 86 kts 191°
2026-04-22 01:26 28.00599 -82.01686 727 ft 84 kts 195°
2026-04-22 01:26 28.00214 -82.02093 646 ft 81 kts 258°
2026-04-22 01:26 28.00157 -82.02702 636 ft 76 kts 264°
2026-04-22 01:27 27.99835 -82.03160 542 ft 80 kts 201°
2026-04-22 01:27 27.99297 -82.03260 359 ft 77 kts 172°
2026-04-22 01:27 27.99041 -82.02805 168 ft 71 kts 90°
2026-04-22 01:27 27.99038 -82.02290 144 ft 60 kts 89°
2026-04-22 01:28 27.99043 -82.01853 137 ft 52 kts 87°
2026-04-22 01:28 27.99063 -82.01542 137 ft 24 kts 14°
2026-04-22 01:28 27.99121 -82.01538 137 ft 9 kts
2026-04-22 01:28 27.99185 -82.01559 138 ft 11 kts 319°
2026-04-22 01:29 27.99198 -82.01585 138 ft 0 kts 240°
2026-04-22 01:54 27.98501 -82.01775 150 ft 0 kts 241°
2026-04-22 01:55 27.98287 -82.02213 495 ft 86 kts 240°
2026-04-22 01:55 27.97284 -82.02094 504 ft 92 kts 235°
2026-04-22 01:55 27.96811 -82.02707 400 ft 94 kts 227°
2026-04-22 01:55 27.96339 -82.03237 307 ft 103 kts 235°
2026-04-22 01:56 27.96190 -82.03941 339 ft 95 kts 267°
2026-04-22 01:56 27.96292 -82.04666 518 ft 98 kts 302°
2026-04-22 01:56 27.96811 -82.05154 782 ft 93 kts 327°
2026-04-22 01:56 27.97364 -82.05523 1021 ft 91 kts 334°
2026-04-22 01:57 27.97966 -82.05766 1256 ft 95 kts 340°
2026-04-22 01:57 27.98580 -82.06021 1477 ft 95 kts 341°
2026-04-22 01:57 27.99253 -82.06091 1668 ft 96 kts 359°
2026-04-22 01:57 27.99918 -82.06100 1897 ft 99 kts
2026-04-22 01:58 28.00613 -82.06010 2069 ft 104 kts
2026-04-22 01:58 28.01312 -82.05846 2322 ft 99 kts
2026-04-22 01:58 28.02028 -82.05736 2439 ft 107 kts
2026-04-22 01:58 28.02796 -82.05728 2568 ft 109 kts 352°
2026-04-22 01:59 28.03532 -82.05787 2664 ft 114 kts
2026-04-22 01:59 28.04290 -82.05503 2763 ft 116 kts 20°
2026-04-22 01:59 28.04954 -82.04980 2843 ft 116 kts 54°
2026-04-22 01:59 28.05176 -82.04116 2935 ft 118 kts 84°
2026-04-22 02:00 28.05199 -82.03193 3042 ft 115 kts 91°
2026-04-22 02:00 28.05183 -82.02280 3104 ft 118 kts 92°
2026-04-22 02:00 28.04934 -82.01378 3082 ft 121 kts 121°
2026-04-22 02:00 28.04524 -82.00546 3058 ft 123 kts 110°
2026-04-22 02:01 28.04500 -81.99604 3103 ft 121 kts 75°
2026-04-22 02:01 28.05018 -81.98859 3085 ft 125 kts 30°
2026-04-22 02:01 28.05831 -81.98636 3228 ft 116 kts
2026-04-22 02:01 28.06224 -81.98679 3243 ft 117 kts 347°